Melbourne Airport, Australia

2:58 AM AEDT on January 18, 2019 (GMT +1100)
Melbourne International

Weather History for YMML - January, 2019

Change the Weather History Date:

Friday, January 11, 2019

  Actual Average Record
Temperature  
Mean Temperature 70 °F -  
Max Temperature 88 °F 77 °F 104 °F (2001)
Min Temperature 52 °F 55 °F 50 °F (2003)
Cooling Degree Days 5    
Growing Degree Days 20 (Base 50)    
Moisture  
Dew Point 47 °F    
Average Humidity 47    
Maximum Humidity 88    
Minimum Humidity 11    
Precipitation  
Precipitation 0.00 in 0.06 in - ()
Sea Level Pressure  
Sea Level Pressure 29.95 in    
Wind  
Wind Speed 7 mph ()    
Max Wind Speed 18 mph    
Max Gust Speed -    
Visibility 14.7 miles    
Events      
Averages and records for this station are not official NWS values.
T = Trace of Precipitation, MM = Missing Value Source: Averaged Metar Reports

Daily Weather History Graph

Daily Weather History Graph

Search for Another Location

Airport or City:

Astronomy

Jan. 11, 2019 Rise Set
Actual Time 6:11 AM AEDT 8:45 PM AEDT
Civil Twilight 5:40 AM AEDT 9:15 PM AEDT
Nautical Twilight 5:02 AM AEDT 9:53 PM AEDT
Astronomical Twilight 4:20 AM AEDT 10:35 PM AEDT
Moon 10:34 AM AEDT (1/11) 11:52 PM AEDT (1/11)
Length of Visible Light 15h 35m
Length of Day
14h 34m
Waxing Crescent, 21% of the Moon is Illuminated
Jan 11
Waxing Crescent
Jan 14
First Quarter
Jan 21
Full
Jan 28
Last Quarter
Feb 5
New

Hourly Weather History & Observations

Time (AEDT) Temp. Dew Point Humidity Pressure Visibility Wind Dir Wind Speed Gust Speed Precip Events Conditions
12:00 AM 57.2 °F 50.0 °F 77% 30.06 in - South 6.9 mph - N/A   Clear
12:30 AM 57.2 °F 50.0 °F 77% 30.06 in - South 5.8 mph - N/A   Clear
1:00 AM 58 °F 49 °F 63% 30.06 in - South 6.9 mph - -  
1:00 AM 57.2 °F 48.2 °F 72% 30.06 in - South 6.9 mph - N/A   Clear
1:30 AM 57.2 °F 50.0 °F 77% 30.06 in - SSW 5.8 mph - N/A   Clear
2:00 AM 57 °F 50 °F 70% 30.04 in - SSW 4.6 mph - -  
2:00 AM 57.2 °F 50.0 °F 77% 30.04 in - SSW 4.6 mph - N/A   Clear
2:30 AM 57.2 °F 50.0 °F 77% 30.04 in - SSW 4.6 mph - N/A   Clear
3:00 AM 55 °F 51 °F 80% 30.02 in 19 mi West 6.9 mph - -   Partly Cloudy
3:00 AM 55.4 °F 50.0 °F 82% 30.01 in - West 6.9 mph - N/A   Clear
3:30 AM 55.4 °F 50.0 °F 82% 30.01 in - West 6.9 mph - N/A   Clear
4:00 AM 54 °F 49 °F 79% 30.01 in - West 6.9 mph - -  
4:00 AM 53.6 °F 50.0 °F 88% 30.01 in - West 6.9 mph - N/A   Clear
5:00 AM 53 °F 49 °F 80% 30.00 in - West 6.9 mph - -  
5:00 AM 53.6 °F 48.2 °F 82% 30.01 in - West 6.9 mph - N/A   Clear
5:30 AM 51.8 °F 48.2 °F 88% 30.01 in - WNW 6.9 mph - N/A   Clear
6:00 AM 53 °F 49 °F 80% 30.01 in 19 mi WNW 8.1 mph - -   Scattered Clouds
6:00 AM 51.8 °F 48.2 °F 88% 30.01 in - WNW 8.1 mph - N/A   Clear
6:30 AM 53.6 °F 50.0 °F 88% 30.01 in - West 8.1 mph - N/A   Clear
7:00 AM 55 °F 50 °F 78% 30.02 in - WNW 6.9 mph - -  
7:00 AM 55.4 °F 50.0 °F 82% 30.01 in - WNW 6.9 mph - N/A   Clear
7:30 AM 57.2 °F 50.0 °F 77% 30.01 in - WNW 6.9 mph - N/A   Clear
8:00 AM 60 °F 51 °F 65% 30.02 in - West 8.1 mph - -  
8:00 AM 60.8 °F 51.8 °F 72% 30.01 in - West 8.1 mph - N/A   Clear
8:30 AM 62.6 °F 50.0 °F 63% 30.01 in - WNW 5.8 mph - N/A   Clear
9:00 AM 65 °F 51 °F 50% 30.02 in 22 mi WSW 5.8 mph - -   Partly Cloudy
9:00 AM 64.4 °F 50.0 °F 59% 30.01 in - WSW 5.8 mph - N/A   Clear
10:00 AM 68 °F 51 °F 43% 30.00 in - West 5.8 mph - -  
10:00 AM 68.0 °F 50.0 °F 52% 30.01 in - West 5.8 mph - N/A   Clear
10:30 AM 71.6 °F 50.0 °F 46% 29.98 in - NNE 4.6 mph - N/A   Clear
11:00 AM 74 °F 51 °F 34% 29.98 in - NNW 1.2 mph - -  
11:00 AM 73.4 °F 51.8 °F 47% 29.98 in - NNW 1.2 mph - N/A   Clear
11:30 AM 77.0 °F 48.2 °F 36% 29.98 in - West 4.6 mph - N/A   Clear
12:00 PM 79 °F 45 °F 19% 29.97 in 22 mi NNE 3.5 mph - -   Partly Cloudy
12:00 PM 78.8 °F 44.6 °F 30% 29.98 in - NNE 3.5 mph - N/A   Clear
12:30 PM 82.4 °F 44.6 °F 26% 29.95 in - East 8.1 mph - N/A   Clear
1:00 PM 82 °F 44 °F 16% 29.94 in - SSW 9.2 mph - -  
1:00 PM 82.4 °F 44.6 °F 26% 29.95 in - SSW 9.2 mph - N/A   Clear
1:30 PM 86.0 °F 44.6 °F 23% 29.92 in - SSE 9.2 mph - N/A   Clear
2:00 PM 85 °F 39 °F 11% 29.91 in - South 6.9 mph - -  
2:00 PM 86.0 °F 39.2 °F 19% 29.92 in 6.2 mi South 6.9 mph - N/A   Unknown
3:00 PM 87 °F 48 °F 16% 29.88 in 22 mi SSE 13.8 mph - -   Partly Cloudy
3:00 PM 86.0 °F 48.2 °F 27% 29.89 in - SSE 13.8 mph - N/A   Clear
3:30 PM 87.8 °F 46.4 °F 24% 29.89 in - SSE 13.8 mph - N/A   Clear
4:00 PM 88 °F 42 °F 12% 29.87 in - SSE 12.7 mph - -  
4:00 PM 87.8 °F 42.8 °F 21% 29.86 in - SSE 12.7 mph - N/A   Clear
4:30 PM 87.8 °F 44.6 °F 22% 29.86 in - SSE 16.1 mph - N/A   Clear
5:00 PM 84 °F 39 °F 12% 29.87 in - South 18.4 mph - -  
5:00 PM 84.2 °F 39.2 °F 20% 29.86 in - South 18.4 mph - N/A   Clear
5:30 PM 82.4 °F 39.2 °F 21% 29.86 in - South 16.1 mph - N/A   Clear
6:00 PM 83 °F 42 °F 15% 29.86 in 22 mi SSE 15.0 mph - -   Partly Cloudy
6:00 PM 82.4 °F 42.8 °F 25% 29.86 in - SSE 15.0 mph - N/A   Clear
6:30 PM 84.2 °F 41.0 °F 22% 29.86 in - SSE 12.7 mph - N/A   Clear
7:00 PM 81 °F 39 °F 13% 29.86 in - SSE 11.5 mph - -  
7:00 PM 80.6 °F 39.2 °F 23% 29.86 in - SSE 11.5 mph - N/A   Clear
7:30 PM 82.4 °F 46.4 °F 28% 29.86 in - SSE 8.1 mph - N/A   Clear
8:00 PM 82 °F 51 °F 23% 29.86 in - SSE 4.6 mph - -  
8:00 PM 82.4 °F 50.0 °F 32% 29.86 in - SSE 4.6 mph - N/A   Clear
8:30 PM 80.6 °F 48.2 °F 32% 29.86 in - NNE 5.8 mph - N/A   Clear
9:00 PM 78 °F 46 °F 22% 29.88 in 25 mi WNW 6.9 mph - -   Partly Cloudy
9:00 PM 77.0 °F 46.4 °F 34% 29.89 in - WNW 6.9 mph - N/A   Clear
9:30 PM 73.4 °F 46.4 °F 38% 29.89 in - WNW 6.9 mph - N/A   Clear
10:00 PM 72 °F 47 °F 31% 29.89 in - North 8.1 mph - -  
10:00 PM 71.6 °F 48.2 °F 43% 29.89 in - North 8.1 mph - N/A   Clear
10:30 PM 71.6 °F 46.4 °F 41% 29.89 in - North 8.1 mph - N/A   Clear
11:00 PM 71 °F 47 °F 31% 29.89 in - North 6.9 mph - -  
11:00 PM 71.6 °F 46.4 °F 41% 29.89 in - North 6.9 mph - N/A   Clear
11:30 PM 68.0 °F 48.2 °F 49% 29.89 in - North 10.4 mph - N/A   Clear